Terminal Aerodrome Forecast
Issued by NWS Tulsa, OK

Home | Current Version | Previous Version | Text Only | Print | Product List | Glossary On
Versions: 1 2 3 4 5 6 7 8 9 10 11 12 13 14 15 16
000
FTPQ31 PGUM 302323
TAFGUM
TAF

TAF
PTSA 302323Z 3100/3124 06012KT P6SM VCSH SCT017 BKN060 BKN130
      TEMPO 3100/3102 4SM SHRA BKN016=

USA.gov is the U.S. government's official web portal to all federal, state and local government web resources and services.